Regional Weather Roundup
Issued by NWS Midland/Odessa, TX

Skip options and go directly to product.
Home | Oldest Version | Previous Version | Current Version | All | Graphics & Text | Save Text | Print | Product List | Glossary On

Skip product version selection by date and time.   
246
ASUS44 KMAF 271910
RWRMAF
MIDLAND AREA WEATHER ROUNDUP
NATIONAL WEATHER SERVICE MIDLAND TX
200 PM CDT THU AUG 27 2015

...IN SOUTHWEST TEXAS AND SOUTHEAST NEW MEXICO...

CITY           SKY/WX    TMP DP  RH WIND       PRES   REMARKS
ALPINE         PTSUNNY   91  49  23 S7        30.28F
ANDREWS        FAIR      92  51  25 SW8       30.14F
ARTESIA        SUNNY     93  55  27 SE14G20   30.13F
BIG SPRING     SUNNY     90  54  29 S8        30.13F
CARLSBAD       SUNNY     96  53  23 S12G17    30.11F
DRYDEN           N/A     96  57  27 S10       30.08F
FORT STOCKTON  SUNNY     95  53  24 S8        30.11F
GUAD PASS      SUNNY     87  51  28 SW13G18   30.30F
HOBBS          MOSUNNY   90  48  24 S6        30.17F
MARFA          SUNNY     84  52  32 CALM      30.28F
MIDLAND AIRPK  SUNNY     94  53  24 SE9       30.13F
MIDLAND INTL   SUNNY     92  53  26 S7        30.12F
ODESSA         SUNNY     93  49  22 S13       30.13F
PECOS          SUNNY     95  52  23 SE6       30.09F
PRESIDIO       NOT AVBL
SEMINOLE       SUNNY     93  47  21 W7        30.16F
SNYDER         SUNNY     92  58  32 S8        30.11F
WINK           SUNNY     96  52  22 SW10      30.09F
$$
...OTHER STATIONS IN TEXAS...

CITY           SKY/WX    TMP DP  RH WIND       PRES   REMARKS
ABILENE        SUNNY     94  60  32 CALM      30.08F
AMARILLO       MOSUNNY   87  60  40 SW17      30.12F
AUSTIN         PTSUNNY   91  62  37 SE7       30.05F
BROWNSVILLE    MOSUNNY   91  67  44 NE12      30.03F
CORPUS CHRISTI PTSUNNY   92  61  35 E10G17    30.05F
DALLAS FTW     PTSUNNY   93  62  35 S5        30.03F
DEL RIO        SUNNY     95  65  37 SE13G18   30.03F
EL PASO        PTSUNNY   90  53  28 SW7       30.17F
HOUSTON INT    MOSUNNY   89  62  40 VRB3      30.05F
LUBBOCK        MOSUNNY   93  51  23 S13G18    30.13F
SAN ANGELO     SUNNY     95  58  28 SE9       30.08F
SAN ANTONIO    PTSUNNY   90  67  46 VRB3      30.07F
WACO           SUNNY     94  61  33 SE6       30.04F
WICHITA FALLS  NOT AVBL
$$
...OTHER LOCATIONS IN NEW MEXICO...

CITY           SKY/WX    TMP DP  RH WIND       PRES   REMARKS
ALAMAGORDO     SUNNY     90  50  25 W5G16     30.20F
ALBUQUERQUE    PTSUNNY   78  56  46 VRB3      30.29F
CANNON AFB     MOSUNNY   91  54  27 W15       30.15F
CLOVIS         MOSUNNY   91  54  27 SW10G17   30.17F
HOLLOMAN AFB   MOSUNNY   91  53  26 SW7       30.17F
ROSWELL        SUNNY     94  54  25 CALM      30.12F
RUIDOSO        MOSUNNY   70  57  64 MISG      30.39F
SANTA FE       MOSUNNY   78  53  41 SW9       30.32F
TRUTH OR CONSE MOSUNNY   87  54  32 SE10      30.23F
TUCUMCARI      PTSUNNY   89  53  29 W21G30    30.12F
$$

USA.gov is the U.S. government's official web portal to all federal, state and local government web resources and services.